| time (UTC) | temp F | wind direction | speed MPH | gust MPH | rain 1hr in | rain 24hr in | rain mn in | humidity % | barometer mb |
| 20260906120020 | 55 | 55 | 0.0 | 0.0 | 0.00 | 0.00 | 0.00 | 95 | 1018.9 |
| 20260906115520 | 55 | 55 | 0.0 | 0.0 | 0.00 | 0.00 | 0.00 | 94 | 1018.9 |
| 20260906115020 | 54 | 55 | 0.0 | 0.0 | 0.00 | 0.00 | 0.00 | 94 | 1018.8 |
| 20260906114520 | 54 | 55 | 0.0 | 0.0 | 0.00 | 0.00 | 0.00 | 94 | 1018.7 |
| 20260906114020 | 55 | 55 | 0.0 | 0.0 | 0.00 | 0.00 | 0.00 | 94 | 1018.6 |
| 20260906113520 | 55 | 55 | 0.0 | 0.0 | 0.00 | 0.00 | 0.00 | 94 | 1018.7 |
| 20260906113020 | 55 | 55 | 0.0 | 0.0 | 0.00 | 0.00 | 0.00 | 94 | 1018.6 |
| 20260906112520 | 55 | 55 | 0.0 | 0.0 | 0.00 | 0.00 | 0.00 | 93 | 1018.5 |
| 20260906112020 | 55 | 55 | 0.0 | 0.0 | 0.00 | 0.00 | 0.00 | 93 | 1018.4 |
| 20260906111520 | 55 | 55 | 0.0 | 0.0 | 0.00 | 0.00 | 0.00 | 93 | 1018.5 |
| 20260906111020 | 55 | 55 | 0.0 | 0.0 | 0.00 | 0.00 | 0.00 | 93 | 1018.4 |
| 20260906110520 | 55 | 55 | 0.0 | 0.0 | 0.00 | 0.00 | 0.00 | 92 | 1018.4 |
| 20260906110020 | 56 | 55 | 0.0 | 0.0 | 0.00 | 0.00 | 0.00 | 92 | 1018.4 |
| 20260906105520 | 56 | 55 | 0.0 | 0.0 | 0.00 | 0.00 | 0.00 | 92 | 1018.4 |
| 20260906105020 | 56 | 55 | 0.0 | 0.0 | 0.00 | 0.00 | 0.00 | 92 | 1018.3 |
| 20260906104555 | 56 | 55 | 0.0 | 0.0 | 0.00 | 0.00 | 0.00 | 92 | 1018.2 |
| 20260906104520 | 56 | 55 | 0.0 | 0.0 | 0.00 | 0.00 | 0.00 | 92 | 1018.2 |
| 20260906104020 | 56 | 55 | 0.0 | 0.0 | 0.00 | 0.00 | 0.00 | 91 | 1018.1 |
| 20260906103520 | 57 | 55 | 0.0 | 1.0 | 0.00 | 0.00 | 0.00 | 91 | 1018.1 |
| 20260906103020 | 57 | 51 | 0.0 | 0.0 | 0.00 | 0.00 | 0.00 | 91 | 1018.0 |
| 20260906102520 | 57 | 51 | 0.0 | 0.0 | 0.00 | 0.00 | 0.00 | 91 | 1017.9 |
| 20260906102020 | 58 | 51 | 0.0 | 0.0 | 0.00 | 0.00 | 0.00 | 91 | 1017.8 |
| 20260906101610 | 58 | 51 | 0.0 | 0.0 | 0.00 | 0.00 | 0.00 | 90 | 1017.9 |
| 20260906101520 | 58 | 51 | 0.0 | 0.0 | 0.00 | 0.00 | 0.00 | 90 | 1017.9 |
| 20260906101020 | 58 | 54 | 0.0 | 0.0 | 0.00 | 0.00 | 0.00 | 90 | 1017.8 |
| 20260906100542 | 58 | 57 | 0.0 | 1.0 | 0.00 | 0.00 | 0.00 | 90 | 1017.8 |
| 20260906100020 | 58 | 54 | 0.0 | 3.0 | 0.00 | 0.00 | 0.00 | 90 | 1017.8 |
| 20260906095520 | 58 | 78 | 0.0 | 1.0 | 0.00 | 0.00 | 0.00 | 90 | 1017.8 |
| 20260906095020 | 59 | 48 | 0.0 | 0.0 | 0.00 | 0.00 | 0.00 | 89 | 1017.9 |
| 20260906094520 | 59 | 48 | 0.0 | 0.0 | 0.00 | 0.00 | 0.00 | 89 | 1018.0 |
| 20260906094020 | 59 | 48 | 0.0 | 0.0 | 0.00 | 0.00 | 0.00 | 89 | 1017.9 |
| 20260906093520 | 59 | 53 | 0.0 | 1.0 | 0.00 | 0.00 | 0.00 | 88 | 1017.8 |
| 20260906093053 | 59 | 39 | 0.0 | 0.0 | 0.00 | 0.00 | 0.00 | 88 | 1017.8 |
| 20260906093020 | 59 | 39 | 0.0 | 0.0 | 0.00 | 0.00 | 0.00 | 88 | 1017.8 |
| 20260906092520 | 59 | 39 | 0.0 | 3.0 | 0.00 | 0.00 | 0.00 | 89 | 1017.7 |
| 20260906092020 | 60 | 35 | 0.0 | 2.0 | 0.00 | 0.00 | 0.00 | 89 | 1017.7 |
| 20260906091635 | 60 | 101 | 0.0 | 2.0 | 0.00 | 0.00 | 0.00 | 89 | 1017.7 |
| 20260906091520 | 60 | 101 | 0.0 | 2.0 | 0.00 | 0.00 | 0.00 | 89 | 1017.7 |
| 20260906091020 | 60 | 80 | 0.0 | 3.0 | 0.00 | 0.00 | 0.00 | 89 | 1017.6 |
| 20260906090520 | 60 | 112 | 1.0 | 1.0 | 0.00 | 0.00 | 0.00 | 89 | 1017.5 |
| 20260906090141 | 60 | 9 | 1.0 | 5.0 | 0.00 | 0.00 | 0.00 | 89 | 1017.5 |
| 20260906090020 | 60 | 9 | 1.0 | 5.0 | 0.00 | 0.00 | 0.00 | 89 | 1017.5 |
| 20260906085520 | 60 | 0 | 0.0 | 1.0 | 0.00 | 0.00 | 0.00 | 89 | 1017.5 |
| 20260906085020 | 60 | 69 | 0.0 | 0.0 | 0.00 | 0.00 | 0.00 | 89 | 1017.5 |
| 20260906084520 | 61 | 34 | 0.0 | 0.0 | 0.00 | 0.00 | 0.00 | 89 | 1017.4 |
| 20260906084020 | 61 | 32 | 1.0 | 5.0 | 0.00 | 0.00 | 0.00 | 89 | 1017.3 |
| 20260906083520 | 61 | 51 | 0.0 | 2.0 | 0.00 | 0.00 | 0.00 | 89 | 1017.3 |
| 20260906083021 | 61 | 67 | 0.0 | 3.0 | 0.00 | 0.00 | 0.00 | 89 | 1017.2 |
| 20260906082520 | 61 | 36 | 0.0 | 2.0 | 0.00 | 0.00 | 0.00 | 89 | 1017.2 |
| 20260906082020 | 61 | 29 | 0.0 | 1.0 | 0.00 | 0.00 | 0.00 | 88 | 1017.2 |
| 20260906081601 | 61 | 5 | 0.0 | 3.0 | 0.00 | 0.00 | 0.00 | 88 | 1017.2 |
| 20260906081521 | 61 | 5 | 0.0 | 3.0 | 0.00 | 0.00 | 0.00 | 88 | 1017.2 |
| 20260906081021 | 62 | 84 | 0.0 | 2.0 | 0.00 | 0.00 | 0.00 | 87 | 1017.2 |
| 20260906080521 | 62 | 69 | 1.0 | 2.0 | 0.00 | 0.00 | 0.00 | 87 | 1017.3 |
| 20260906080104 | 62 | 44 | 1.0 | 4.0 | 0.00 | 0.01 | 0.00 | 87 | 1017.2 |
| 20260906080021 | 62 | 44 | 1.0 | 4.0 | 0.00 | 0.01 | 0.00 | 87 | 1017.2 |
| 20260906075521 | 62 | 85 | 0.0 | 4.0 | 0.00 | 0.01 | 0.00 | 87 | 1017.2 |
| 20260906075021 | 62 | 66 | 0.0 | 2.0 | 0.00 | 0.01 | 0.00 | 87 | 1017.3 |
| 20260906074521 | 62 | 43 | 0.0 | 2.0 | 0.00 | 0.01 | 0.00 | 87 | 1017.2 |
| 20260906074021 | 63 | 89 | 1.0 | 3.0 | 0.00 | 0.01 | 0.00 | 87 | 1017.1 |
| 20260906073521 | 63 | 86 | 1.0 | 4.0 | 0.00 | 0.01 | 0.00 | 87 | 1017.0 |
| 20260906073021 | 63 | 67 | 1.0 | 3.0 | 0.00 | 0.01 | 0.00 | 87 | 1017.0 |
| 20260906072521 | 63 | 80 | 0.0 | 4.0 | 0.00 | 0.01 | 0.00 | 87 | 1017.1 |
| 20260906072021 | 63 | 53 | 1.0 | 2.0 | 0.00 | 0.01 | 0.00 | 86 | 1017.1 |
| 20260906071556 | 63 | 60 | 1.0 | 4.0 | 0.00 | 0.01 | 0.00 | 86 | 1017.0 |
| 20260906071521 | 63 | 60 | 1.0 | 4.0 | 0.00 | 0.01 | 0.00 | 86 | 1017.0 |
| 20260906071021 | 63 | 89 | 1.0 | 3.0 | 0.00 | 0.01 | 0.00 | 86 | 1017.0 |
| 20260906070521 | 64 | 105 | 1.0 | 6.0 | 0.00 | 0.01 | 0.00 | 85 | 1017.1 |
| 20260906070021 | 64 | 147 | 1.0 | 3.0 | 0.00 | 0.01 | 0.00 | 85 | 1017.2 |
| 20260906065521 | 64 | 95 | 2.0 | 5.0 | 0.00 | 0.01 | 0.00 | 85 | 1017.1 |
| 20260906065021 | 64 | 108 | 2.0 | 5.0 | 0.00 | 0.01 | 0.00 | 84 | 1017.2 |
| 20260906064521 | 64 | 138 | 3.0 | 6.0 | 0.00 | 0.01 | 0.00 | 84 | 1017.1 |
| 20260906064021 | 64 | 133 | 2.0 | 6.0 | 0.00 | 0.01 | 0.00 | 84 | 1017.1 |
| 20260906063521 | 64 | 103 | 3.0 | 6.0 | 0.00 | 0.01 | 0.00 | 84 | 1017.2 |
| 20260906063323 | 64 | 141 | 3.0 | 6.0 | 0.00 | 0.01 | 0.00 | 84 | 1017.2 |
| 20260906063109 | 64 | 141 | 3.0 | 6.0 | 0.00 | 0.01 | 0.00 | 84 | 1017.2 |
| 20260906063021 | 64 | 141 | 3.0 | 6.0 | 0.00 | 0.01 | 0.00 | 84 | 1017.2 |
| 20260906062521 | 65 | 103 | 3.0 | 5.0 | 0.00 | 0.01 | 0.00 | 84 | 1017.1 |
| 20260906062021 | 65 | 137 | 4.0 | 7.0 | 0.00 | 0.01 | 0.00 | 84 | 1017.1 |
| 20260906061521 | 65 | 130 | 3.0 | 7.0 | 0.00 | 0.01 | 0.00 | 84 | 1016.9 |
| 20260906061021 | 65 | 98 | 3.0 | 5.0 | 0.00 | 0.01 | 0.00 | 84 | 1017.1 |
| 20260906060521 | 65 | 103 | 4.0 | 7.0 | 0.00 | 0.01 | 0.00 | 84 | 1017.0 |
| 20260906060021 | 65 | 104 | 4.0 | 9.0 | 0.00 | 0.51 | 0.00 | 84 | 1017.1 |
| 20260906055521 | 65 | 132 | 4.0 | 7.0 | 0.00 | 0.51 | 0.00 | 84 | 1017.0 |
| 20260906055021 | 65 | 88 | 4.0 | 7.0 | 0.00 | 0.51 | 0.00 | 84 | 1017.0 |
| 20260906054554 | 65 | 117 | 4.0 | 9.0 | 0.00 | 0.51 | 0.00 | 84 | 1016.9 |
| 20260906054521 | 65 | 117 | 4.0 | 9.0 | 0.00 | 0.51 | 0.00 | 84 | 1016.9 |
| 20260906054021 | 66 | 136 | 4.0 | 10.0 | 0.00 | 0.51 | 0.00 | 84 | 1016.8 |
| 20260906053521 | 66 | 98 | 4.0 | 9.0 | 0.00 | 0.51 | 0.00 | 83 | 1016.8 |
| 20260906053021 | 66 | 151 | 5.0 | 10.0 | 0.00 | 0.51 | 0.00 | 84 | 1016.7 |
| 20260906052521 | 66 | 142 | 5.0 | 11.0 | 0.00 | 0.51 | 0.00 | 84 | 1016.6 |
| 20260906052021 | 66 | 69 | 5.0 | 10.0 | 0.00 | 0.51 | 0.00 | 84 | 1016.6 |
| 20260906051554 | 66 | 119 | 5.0 | 10.0 | 0.00 | 0.51 | 0.00 | 84 | 1016.6 |
| 20260906051521 | 66 | 119 | 5.0 | 10.0 | 0.00 | 0.51 | 0.00 | 84 | 1016.6 |
| 20260906051021 | 66 | 113 | 4.0 | 10.0 | 0.00 | 0.51 | 0.00 | 84 | 1016.5 |
| 20260906050521 | 66 | 126 | 4.0 | 10.0 | 0.00 | 0.51 | 0.00 | 83 | 1016.6 |
| 20260906050021 | 66 | 107 | 5.0 | 9.0 | 0.00 | 0.70 | 0.00 | 83 | 1016.6 |
| 20260906045521 | 67 | 115 | 5.0 | 12.0 | 0.00 | 0.70 | 0.00 | 83 | 1016.6 |
| 20260906045021 | 67 | 109 | 5.0 | 9.0 | 0.00 | 0.70 | 0.00 | 83 | 1016.5 |
| 20260906044621 | 67 | 59 | 6.0 | 13.0 | 0.00 | 0.70 | 0.00 | 83 | 1016.3 |
| 20260906044521 | 67 | 59 | 6.0 | 13.0 | 0.00 | 0.70 | 0.00 | 83 | 1016.3 |
| 20260906044021 | 67 | 105 | 6.0 | 13.0 | 0.00 | 0.70 | 0.00 | 83 | 1016.3 |
| 20260906043521 | 67 | 111 | 5.0 | 11.0 | 0.00 | 0.70 | 0.00 | 84 | 1016.2 |
| 20260906043021 | 67 | 71 | 4.0 | 11.0 | 0.00 | 0.70 | 0.00 | 84 | 1016.2 |
| 20260906042521 | 67 | 147 | 4.0 | 10.0 | 0.00 | 0.70 | 0.00 | 85 | 1016.3 |
| 20260906042021 | 67 | 88 | 4.0 | 8.0 | 0.00 | 0.70 | 0.00 | 85 | 1016.4 |
| 20260906041521 | 67 | 88 | 5.0 | 11.0 | 0.00 | 0.70 | 0.00 | 85 | 1016.2 |
| 20260906041021 | 67 | 121 | 5.0 | 8.0 | 0.00 | 0.70 | 0.00 | 85 | 1016.3 |
| 20260906040521 | 67 | 87 | 4.0 | 8.0 | 0.00 | 0.70 | 0.00 | 86 | 1016.3 |
| 20260906040021 | 67 | 105 | 3.0 | 5.0 | 0.00 | 1.27 | 0.00 | 86 | 1016.2 |
| 20260906035521 | 67 | 121 | 3.0 | 6.0 | 0.00 | 1.27 | 0.00 | 86 | 1016.3 |
| 20260906035021 | 67 | 115 | 3.0 | 6.0 | 0.00 | 1.27 | 0.00 | 87 | 1016.1 |
| 20260906034521 | 67 | 90 | 3.0 | 5.0 | 0.00 | 1.27 | 0.00 | 87 | 1016.2 |
| 20260906034021 | 67 | 105 | 3.0 | 5.0 | 0.00 | 1.27 | 0.00 | 87 | 1016.2 |
| 20260906033521 | 67 | 90 | 4.0 | 6.0 | 0.00 | 1.27 | 0.00 | 87 | 1016.2 |
| 20260906033126 | 67 | 76 | 3.0 | 6.0 | 0.00 | 1.27 | 0.00 | 87 | 1016.1 |
| 20260906033021 | 67 | 76 | 3.0 | 6.0 | 0.00 | 1.27 | 0.00 | 87 | 1016.1 |
| 20260906032521 | 67 | 84 | 3.0 | 5.0 | 0.00 | 1.27 | 0.00 | 87 | 1016.2 |
| 20260906032021 | 67 | 86 | 3.0 | 7.0 | 0.00 | 1.27 | 0.00 | 88 | 1016.1 |
| 20260906031556 | 67 | 76 | 2.0 | 5.0 | 0.00 | 1.27 | 0.00 | 89 | 1016.1 |
| 20260906031521 | 67 | 76 | 2.0 | 5.0 | 0.00 | 1.27 | 0.00 | 89 | 1016.1 |
| 20260906031021 | 67 | 74 | 2.0 | 5.0 | 0.00 | 1.27 | 0.00 | 89 | 1016.1 |
| 20260906030521 | 67 | 82 | 1.0 | 6.0 | 0.00 | 1.27 | 0.00 | 91 | 1016.1 |
| 20260906030021 | 67 | 83 | 2.0 | 5.0 | 0.00 | 1.27 | 0.00 | 92 | 1016.1 |
| 20260906025521 | 67 | 71 | 2.0 | 7.0 | 0.00 | 1.27 | 0.00 | 93 | 1016.0 |
| 20260906025021 | 67 | 51 | 1.0 | 6.0 | 0.00 | 1.27 | 0.00 | 94 | 1015.9 |
| 20260906024558 | 67 | 24 | 1.0 | 4.0 | 0.00 | 1.27 | 0.00 | 94 | 1015.9 |
| 20260906024522 | 67 | 24 | 1.0 | 4.0 | 0.00 | 1.27 | 0.00 | 94 | 1015.9 |
| 20260906024022 | 67 | 84 | 1.0 | 3.0 | 0.00 | 1.27 | 0.00 | 94 | 1015.8 |
| 20260906023522 | 67 | 86 | 0.0 | 4.0 | 0.00 | 1.27 | 0.00 | 95 | 1015.6 |
| 20260906023022 | 67 | 71 | 0.0 | 1.0 | 0.00 | 1.27 | 0.00 | 94 | 1015.5 |
| 20260906022522 | 67 | 55 | 0.0 | 2.0 | 0.00 | 1.27 | 0.00 | 94 | 1015.4 |
| 20260906022022 | 67 | 42 | 0.0 | 0.0 | 0.00 | 1.27 | 0.00 | 94 | 1015.3 |
| 20260906021522 | 67 | 84 | 0.0 | 0.0 | 0.00 | 1.27 | 0.00 | 94 | 1015.4 |
| 20260906021022 | 67 | 84 | 0.0 | 0.0 | 0.00 | 1.27 | 0.00 | 94 | 1015.5 |
| 20260906020522 | 67 | 84 | 0.0 | 0.0 | 0.00 | 1.27 | 0.00 | 94 | 1015.5 |
| 20260906020022 | 67 | 84 | 0.0 | 0.0 | 0.00 | 1.27 | 0.00 | 94 | 1015.5 |
| 20260906015522 | 68 | 84 | 0.0 | 0.0 | 0.00 | 1.27 | 0.00 | 94 | 1015.5 |
| 20260906015022 | 68 | 84 | 0.0 | 0.0 | 0.00 | 1.27 | 0.00 | 93 | 1015.4 |
| 20260906014522 | 68 | 84 | 0.0 | 0.0 | 0.00 | 1.27 | 0.00 | 93 | 1015.4 |
| 20260906014022 | 68 | 84 | 0.0 | 0.0 | 0.00 | 1.27 | 0.00 | 93 | 1015.3 |
| 20260906013522 | 68 | 84 | 0.0 | 0.0 | 0.00 | 1.27 | 0.00 | 93 | 1015.3 |
| 20260906013022 | 68 | 84 | 0.0 | 0.0 | 0.00 | 1.27 | 0.00 | 93 | 1015.2 |
| 20260906012522 | 69 | 84 | 0.0 | 0.0 | 0.00 | 1.27 | 0.00 | 93 | 1015.2 |
| 20260906012022 | 69 | 84 | 0.0 | 0.0 | 0.00 | 1.27 | 0.00 | 93 | 1015.1 |
| 20260906011522 | 69 | 84 | 0.0 | 0.0 | 0.00 | 1.27 | 0.00 | 92 | 1015.1 |
| 20260906011022 | 69 | 84 | 0.0 | 0.0 | 0.00 | 1.27 | 0.00 | 92 | 1015.0 |
| 20260906010524 | 70 | 84 | 0.0 | 0.0 | 0.00 | 1.27 | 0.00 | 92 | 1015.0 |
| 20260906010022 | 70 | 84 | 0.0 | 0.0 | 0.00 | 1.27 | 0.00 | 92 | 1014.9 |
| 20260906005522 | 70 | 84 | 0.0 | 0.0 | 0.00 | 1.27 | 0.00 | 92 | 1014.8 |
| 20260906005022 | 70 | 84 | 0.0 | 0.0 | 0.00 | 1.27 | 0.00 | 92 | 1014.7 |
| 20260906004522 | 70 | 84 | 0.0 | 0.0 | 0.00 | 1.27 | 0.00 | 91 | 1014.8 |
| 20260906004022 | 71 | 84 | 0.0 | 0.0 | 0.00 | 1.27 | 0.00 | 91 | 1014.8 |
| 20260906003522 | 71 | 84 | 0.0 | 0.0 | 0.00 | 1.27 | 0.00 | 91 | 1014.8 |
| 20260906003106 | 71 | 84 | 0.0 | 0.0 | 0.00 | 1.27 | 0.00 | 91 | 1014.7 |
| 20260906003022 | 71 | 84 | 0.0 | 0.0 | 0.00 | 1.27 | 0.00 | 91 | 1014.7 |
| 20260906002522 | 71 | 84 | 0.0 | 2.0 | 0.00 | 1.27 | 0.00 | 90 | 1014.6 |
| 20260906002022 | 72 | 84 | 0.0 | 0.0 | 0.00 | 1.27 | 0.00 | 90 | 1014.6 |
| 20260906001621 | 72 | 84 | 0.0 | 0.0 | 0.00 | 1.27 | 0.00 | 89 | 1014.7 |
| 20260906001522 | 72 | 84 | 0.0 | 0.0 | 0.00 | 1.27 | 0.00 | 89 | 1014.7 |
| 20260906001022 | 72 | 84 | 0.0 | 0.0 | 0.00 | 1.27 | 0.00 | 89 | 1014.7 |
| 20260906000522 | 72 | 84 | 0.0 | 0.0 | 0.00 | 1.27 | 0.00 | 88 | 1014.7 |
| 20260906000022 | 72 | 84 | 0.0 | 0.0 | 0.00 | 1.27 | 0.00 | 88 | 1014.5 |
| 20260905235522 | 72 | 84 | 0.0 | 1.0 | 0.00 | 1.27 | 0.00 | 88 | 1014.6 |
| 20260905235022 | 72 | 84 | 1.0 | 1.0 | 0.00 | 1.27 | 1.27 | 88 | 1014.5 |
| 20260905234522 | 72 | 94 | 1.0 | 4.0 | 0.00 | 1.27 | 1.27 | 88 | 1014.5 |
| 20260905234022 | 72 | 69 | 0.0 | 1.0 | 0.00 | 1.27 | 1.27 | 88 | 1014.6 |
| 20260905233522 | 72 | 83 | 0.0 | 2.0 | 0.00 | 1.27 | 1.27 | 87 | 1014.6 |
| 20260905233022 | 72 | 102 | 1.0 | 3.0 | 0.00 | 1.27 | 1.27 | 87 | 1014.6 |
| 20260905232522 | 72 | 61 | 0.0 | 2.0 | 0.00 | 1.27 | 1.27 | 88 | 1014.6 |
| 20260905232022 | 72 | 77 | 1.0 | 2.0 | 0.00 | 1.27 | 1.27 | 88 | 1014.6 |
| 20260905231522 | 72 | 46 | 1.0 | 3.0 | 0.00 | 1.27 | 1.27 | 88 | 1014.6 |
| 20260905231022 | 72 | 67 | 1.0 | 4.0 | 0.00 | 1.27 | 1.27 | 88 | 1014.6 |
| 20260905230522 | 72 | 86 | 0.0 | 2.0 | 0.00 | 1.27 | 1.27 | 88 | 1014.6 |
| 20260905230022 | 72 | 65 | 1.0 | 2.0 | 0.00 | 1.27 | 1.27 | 88 | 1014.5 |
| 20260905225522 | 72 | 99 | 2.0 | 5.0 | 0.00 | 1.27 | 1.27 | 88 | 1014.3 |
| 20260905225022 | 72 | 111 | 4.0 | 5.0 | 0.00 | 1.27 | 1.27 | 87 | 1014.2 |
| 20260905224522 | 72 | 100 | 4.0 | 7.0 | 0.00 | 1.27 | 1.27 | 87 | 1014.2 |
| 20260905224022 | 72 | 118 | 5.0 | 6.0 | 0.00 | 1.27 | 1.27 | 87 | 1014.1 |
| 20260905223522 | 72 | 130 | 5.0 | 11.0 | 0.00 | 1.27 | 1.27 | 87 | 1014.1 |
| 20260905223022 | 73 | 80 | 4.0 | 12.0 | 0.00 | 1.27 | 1.27 | 87 | 1014.0 |
| 20260905222522 | 73 | 45 | 5.0 | 10.0 | 0.00 | 1.27 | 1.27 | 86 | 1014.1 |
| 20260905222022 | 73 | 103 | 3.0 | 8.0 | 0.00 | 1.27 | 1.27 | 87 | 1014.0 |
| 20260905221522 | 73 | 103 | 3.0 | 6.0 | 0.00 | 1.27 | 1.27 | 87 | 1014.0 |
| 20260905221022 | 72 | 127 | 4.0 | 10.0 | 0.00 | 1.27 | 1.27 | 87 | 1014.0 |
| 20260905220522 | 72 | 105 | 5.0 | 12.0 | 0.00 | 1.27 | 1.27 | 87 | 1014.0 |
| 20260905220022 | 72 | 96 | 4.0 | 10.0 | 0.00 | 1.27 | 1.27 | 87 | 1014.0 |
| 20260905215522 | 72 | 103 | 4.0 | 11.0 | 0.00 | 1.27 | 1.27 | 87 | 1014.0 |
| 20260905215022 | 72 | 92 | 6.0 | 7.0 | 0.00 | 1.27 | 1.27 | 88 | 1013.8 |
| 20260905214523 | 72 | 90 | 7.0 | 13.0 | 0.00 | 1.27 | 1.27 | 87 | 1013.9 |
| 20260905214022 | 72 | 136 | 7.0 | 12.0 | 0.00 | 1.27 | 1.27 | 87 | 1013.9 |
| 20260905213522 | 72 | 69 | 5.0 | 14.0 | 0.00 | 1.27 | 1.27 | 87 | 1013.8 |
| 20260905213023 | 73 | 63 | 4.0 | 7.0 | 0.00 | 1.27 | 1.27 | 87 | 1013.8 |
| 20260905212523 | 73 | 76 | 4.0 | 9.0 | 0.00 | 1.27 | 1.27 | 87 | 1013.8 |
| 20260905212023 | 73 | 88 | 5.0 | 12.0 | 0.00 | 1.27 | 1.27 | 86 | 1013.8 |
| 20260905211523 | 73 | 84 | 5.0 | 10.0 | 0.00 | 1.27 | 1.27 | 86 | 1013.7 |
| 20260905211023 | 73 | 79 | 5.0 | 11.0 | 0.00 | 1.27 | 1.27 | 86 | 1013.7 |
| 20260905210523 | 73 | 49 | 5.0 | 10.0 | 0.00 | 1.27 | 1.27 | 86 | 1013.6 |
| 20260905210112 | 73 | 69 | 4.0 | 10.0 | 0.00 | 1.27 | 1.27 | 87 | 1013.6 |
| 20260905210023 | 73 | 69 | 4.0 | 10.0 | 0.00 | 1.27 | 1.27 | 87 | 1013.6 |
| 20260905205523 | 73 | 101 | 4.0 | 9.0 | 0.00 | 1.27 | 1.27 | 87 | 1013.6 |
| 20260905205023 | 73 | 67 | 4.0 | 10.0 | 0.00 | 1.27 | 1.27 | 87 | 1013.6 |
| 20260905204523 | 73 | 61 | 4.0 | 8.0 | 0.00 | 1.27 | 1.27 | 87 | 1013.6 |
| 20260905204023 | 73 | 38 | 5.0 | 7.0 | 0.00 | 1.27 | 1.27 | 87 | 1013.7 |
| 20260905203523 | 73 | 65 | 4.0 | 12.0 | 0.00 | 1.27 | 1.27 | 87 | 1013.7 |
| 20260905203023 | 74 | 78 | 2.0 | 9.0 | 0.00 | 1.27 | 1.27 | 87 | 1013.7 |
| 20260905202523 | 74 | 115 | 2.0 | 4.0 | 0.00 | 1.27 | 1.27 | 88 | 1013.8 |
| 20260905202023 | 74 | 74 | 1.0 | 7.0 | 0.00 | 1.27 | 1.27 | 88 | 1013.8 |
| 20260905201523 | 74 | 62 | 2.0 | 4.0 | 0.00 | 1.27 | 1.27 | 87 | 1013.8 |
| 20260905201023 | 74 | 48 | 2.0 | 6.0 | 0.00 | 1.27 | 1.27 | 87 | 1013.7 |
| 20260905200523 | 75 | 31 | 1.0 | 6.0 | 0.00 | 1.27 | 1.27 | 87 | 1013.7 |
| 20260905200023 | 75 | 17 | 1.0 | 7.0 | 0.00 | 1.27 | 1.27 | 87 | 1013.8 |
| 20260905195523 | 75 | 92 | 1.0 | 4.0 | 0.00 | 1.27 | 1.27 | 87 | 1013.6 |
| 20260905195023 | 75 | 58 | 1.0 | 3.0 | 0.00 | 1.27 | 1.27 | 88 | 1013.6 |
| 20260905194705 | 75 | 82 | 2.0 | 4.0 | 0.00 | 1.27 | 1.27 | 87 | 1013.6 |
| 20260905194523 | 75 | 82 | 2.0 | 4.0 | 0.00 | 1.27 | 1.27 | 87 | 1013.6 |
| 20260905194023 | 75 | 40 | 2.0 | 6.0 | 0.00 | 1.27 | 1.27 | 87 | 1013.8 |
| 20260905193523 | 75 | 81 | 1.0 | 5.0 | 0.00 | 1.27 | 1.27 | 87 | 1013.8 |
| 20260905193023 | 75 | 40 | 1.0 | 5.0 | 0.00 | 1.27 | 1.27 | 88 | 1013.8 |
| 20260905192523 | 75 | 316 | 1.0 | 3.0 | 0.00 | 1.27 | 1.27 | 87 | 1013.8 |
| 20260905192023 | 75 | 56 | 1.0 | 4.0 | 0.00 | 1.27 | 1.27 | 87 | 1013.8 |
| 20260905191523 | 75 | 329 | 2.0 | 5.0 | 0.00 | 1.27 | 1.27 | 87 | 1013.8 |
| 20260905191023 | 75 | 73 | 2.0 | 7.0 | 0.00 | 1.27 | 1.27 | 87 | 1013.8 |
| 20260905190523 | 75 | 88 | 2.0 | 7.0 | 0.00 | 1.27 | 1.27 | 87 | 1013.8 |
| 20260905190023 | 75 | 17 | 3.0 | 7.0 | 0.00 | 1.27 | 1.27 | 87 | 1013.9 |
| 20260905185523 | 76 | 37 | 2.0 | 7.0 | 0.00 | 1.27 | 1.27 | 86 | 1014.0 |
| 20260905185023 | 76 | 44 | 2.0 | 5.0 | 0.00 | 1.27 | 1.27 | 87 | 1014.0 |
| 20260905184523 | 76 | 42 | 2.0 | 10.0 | 0.00 | 1.27 | 1.27 | 86 | 1013.9 |
| 20260905184023 | 76 | 31 | 2.0 | 6.0 | 0.00 | 1.27 | 1.27 | 87 | 1013.8 |
| 20260905183523 | 76 | 106 | 1.0 | 4.0 | 0.00 | 1.27 | 1.27 | 87 | 1013.8 |
| 20260905183023 | 76 | 106 | 2.0 | 6.0 | 0.00 | 1.27 | 1.27 | 87 | 1013.8 |
| 20260905182523 | 76 | 19 | 2.0 | 7.0 | 0.00 | 1.27 | 1.27 | 86 | 1013.7 |
| 20260905182023 | 76 | 22 | 3.0 | 7.0 | 0.00 | 1.27 | 1.27 | 86 | 1013.8 |
| 20260905181523 | 76 | 52 | 3.0 | 7.0 | 0.00 | 1.27 | 1.27 | 86 | 1013.8 |
| 20260905181023 | 76 | 55 | 2.0 | 6.0 | 0.00 | 1.27 | 1.27 | 86 | 1013.9 |
| 20260905180523 | 76 | 90 | 2.0 | 6.0 | 0.00 | 1.27 | 1.27 | 85 | 1013.8 |
| 20260905180023 | 77 | 51 | 1.0 | 6.0 | 0.00 | 1.27 | 1.27 | 85 | 1013.8 |
| 20260905175523 | 77 | 305 | 1.0 | 4.0 | 0.00 | 1.27 | 1.27 | 84 | 1013.9 |
| 20260905175023 | 77 | 30 | 1.0 | 5.0 | 0.00 | 1.27 | 1.27 | 84 | 1013.9 |
| 20260905174523 | 77 | 90 | 2.0 | 4.0 | 0.00 | 1.27 | 1.27 | 82 | 1013.8 |
| 20260905174023 | 77 | 51 | 2.0 | 5.0 | 0.00 | 1.27 | 1.27 | 84 | 1013.9 |
| 20260905173523 | 76 | 69 | 2.0 | 6.0 | 0.00 | 1.27 | 1.27 | 83 | 1013.9 |
| 20260905173023 | 76 | 148 | 2.0 | 5.0 | 0.00 | 1.27 | 1.27 | 83 | 1013.9 |
| 20260905172523 | 76 | 85 | 2.0 | 5.0 | 0.00 | 1.27 | 1.27 | 84 | 1014.0 |
| 20260905172023 | 76 | 117 | 2.0 | 4.0 | 0.00 | 1.27 | 1.27 | 85 | 1014.0 |
| 20260905171523 | 76 | 132 | 2.0 | 7.0 | 0.00 | 1.27 | 1.27 | 84 | 1014.1 |
| 20260905171023 | 76 | 143 | 1.0 | 6.0 | 0.00 | 1.27 | 1.27 | 84 | 1014.2 |
| 20260905170523 | 76 | 227 | 1.0 | 3.0 | 0.00 | 1.27 | 1.27 | 85 | 1014.3 |
| 20260905170023 | 76 | 146 | 2.0 | 5.0 | 0.00 | 1.29 | 1.27 | 84 | 1014.3 |
| 20260905165523 | 76 | 144 | 2.0 | 6.0 | 0.00 | 1.29 | 1.27 | 85 | 1014.3 |
| 20260905165023 | 75 | 155 | 2.0 | 6.0 | 0.00 | 1.29 | 1.27 | 86 | 1014.3 |
| 20260905164523 | 75 | 128 | 3.0 | 5.0 | 0.00 | 1.29 | 1.27 | 85 | 1014.2 |
| 20260905164023 | 75 | 86 | 3.0 | 6.0 | 0.00 | 1.29 | 1.27 | 86 | 1014.2 |
| 20260905163524 | 75 | 94 | 2.0 | 6.0 | 0.00 | 1.29 | 1.27 | 87 | 1014.2 |
| 20260905163023 | 75 | 59 | 2.0 | 6.0 | 0.00 | 1.29 | 1.27 | 86 | 1014.2 |
| 20260905162523 | 74 | 171 | 2.0 | 5.0 | 0.00 | 1.29 | 1.27 | 87 | 1014.1 |
| 20260905162023 | 74 | 138 | 3.0 | 5.0 | 0.00 | 1.29 | 1.27 | 88 | 1014.0 |
| 20260905161523 | 74 | 63 | 2.0 | 5.0 | 0.00 | 1.29 | 1.27 | 88 | 1014.1 |
| 20260905161023 | 74 | 84 | 2.0 | 5.0 | 0.00 | 1.29 | 1.27 | 90 | 1014.3 |
| 20260905160524 | 73 | 99 | 3.0 | 6.0 | 0.00 | 1.29 | 1.27 | 89 | 1014.3 |
| 20260905160024 | 73 | 86 | 2.0 | 7.0 | 0.00 | 1.59 | 1.27 | 89 | 1014.3 |
| 20260905155524 | 73 | 95 | 2.0 | 5.0 | 0.00 | 1.59 | 1.27 | 90 | 1014.2 |
| 20260905155024 | 73 | 116 | 2.0 | 5.0 | 0.00 | 1.59 | 1.27 | 90 | 1014.1 |
| 20260905154524 | 73 | 121 | 3.0 | 5.0 | 0.00 | 1.59 | 1.27 | 90 | 1014.2 |
| 20260905154024 | 73 | 161 | 3.0 | 7.0 | 0.00 | 1.59 | 1.27 | 91 | 1014.1 |
| 20260905153524 | 72 | 107 | 2.0 | 5.0 | 0.00 | 1.59 | 1.27 | 92 | 1014.1 |
| 20260905153024 | 72 | 169 | 1.0 | 4.0 | 0.00 | 1.59 | 1.27 | 94 | 1014.1 |
| 20260905152524 | 72 | 126 | 2.0 | 4.0 | 0.00 | 1.59 | 1.27 | 94 | 1014.0 |
| 20260905152024 | 71 | 107 | 2.0 | 4.0 | 0.00 | 1.59 | 1.27 | 94 | 1014.0 |
| 20260905151524 | 71 | 94 | 2.0 | 4.0 | 0.00 | 1.59 | 1.27 | 94 | 1014.0 |
| 20260905151024 | 71 | 105 | 2.0 | 5.0 | 0.00 | 1.59 | 1.27 | 94 | 1014.0 |
| 20260905150524 | 71 | 173 | 2.0 | 4.0 | 0.00 | 1.59 | 1.27 | 95 | 1014.0 |
| 20260905150024 | 71 | 150 | 1.0 | 5.0 | 0.00 | 1.59 | 1.27 | 95 | 1014.1 |
| 20260905145524 | 71 | 134 | 1.0 | 4.0 | 0.00 | 1.59 | 1.27 | 95 | 1014.1 |
| 20260905145024 | 71 | 13 | 0.0 | 3.0 | 0.00 | 1.59 | 1.27 | 96 | 1013.9 |
| 20260905144524 | 71 | 69 | 1.0 | 3.0 | 0.00 | 1.59 | 1.27 | 96 | 1013.9 |
| 20260905144024 | 70 | 153 | 0.0 | 3.0 | 0.00 | 1.59 | 1.27 | 96 | 1013.9 |
| 20260905143524 | 70 | 173 | 0.0 | 0.0 | 0.00 | 1.59 | 1.27 | 96 | 1013.9 |
| 20260905143024 | 70 | 173 | 1.0 | 3.0 | 0.00 | 1.59 | 1.27 | 96 | 1013.9 |
| 20260905142524 | 70 | 118 | 1.0 | 4.0 | 0.00 | 1.59 | 1.27 | 96 | 1013.9 |
| 20260905142024 | 69 | 84 | 1.0 | 2.0 | 0.00 | 1.59 | 1.27 | 96 | 1014.0 |
| 20260905141524 | 69 | 117 | 2.0 | 4.0 | 0.00 | 1.59 | 1.27 | 96 | 1014.0 |
| 20260905141024 | 69 | 121 | 2.0 | 6.0 | 0.00 | 1.59 | 1.27 | 96 | 1013.8 |
| 20260905140524 | 69 | 136 | 1.0 | 5.0 | 0.00 | 1.59 | 1.27 | 96 | 1013.8 |
| 20260905140024 | 69 | 140 | 1.0 | 3.0 | 0.00 | 1.69 | 1.27 | 96 | 1013.6 |
| 20260905135524 | 69 | 133 | 1.0 | 6.0 | 0.00 | 1.69 | 1.27 | 96 | 1013.5 |
| 20260905135024 | 69 | 135 | 1.0 | 5.0 | 0.00 | 1.69 | 1.27 | 96 | 1013.6 |
| 20260905134524 | 69 | 112 | 1.0 | 5.0 | 0.00 | 1.69 | 1.27 | 96 | 1013.6 |
| 20260905134024 | 69 | 153 | 1.0 | 4.0 | 0.00 | 1.69 | 1.27 | 96 | 1013.6 |
| 20260905133524 | 69 | 93 | 0.0 | 2.0 | 0.00 | 1.69 | 1.27 | 97 | 1013.6 |
| 20260905133024 | 69 | 99 | 0.0 | 3.0 | 0.00 | 1.69 | 1.27 | 97 | 1013.5 |
| 20260905132524 | 69 | 144 | 0.0 | 2.0 | 0.00 | 1.69 | 1.27 | 97 | 1013.6 |
| 20260905132024 | 69 | 136 | 1.0 | 4.0 | 0.00 | 1.69 | 1.27 | 96 | 1013.6 |
| 20260905131524 | 69 | 123 | 2.0 | 5.0 | 0.00 | 1.69 | 1.27 | 96 | 1013.5 |
| 20260905131024 | 69 | 105 | 1.0 | 6.0 | 0.00 | 1.69 | 1.27 | 96 | 1013.4 |
| 20260905130524 | 69 | 82 | 1.0 | 4.0 | 0.00 | 1.69 | 1.27 | 96 | 1013.5 |
| 20260905130024 | 68 | 140 | 1.0 | 2.0 | 0.00 | 1.69 | 1.27 | 97 | 1013.5 |
| 20260905125524 | 68 | 99 | 1.0 | 2.0 | 0.00 | 1.69 | 1.27 | 97 | 1013.5 |
| 20260905125024 | 68 | 103 | 1.0 | 3.0 | 0.00 | 1.69 | 1.27 | 97 | 1013.6 |
| 20260905124524 | 68 | 118 | 1.0 | 4.0 | 0.00 | 1.69 | 1.27 | 97 | 1013.5 |
| 20260905124024 | 68 | 102 | 1.0 | 4.0 | 0.00 | 1.69 | 1.27 | 96 | 1013.5 |
| 20260905123524 | 68 | 73 | 1.0 | 3.0 | 0.00 | 1.69 | 1.27 | 96 | 1013.5 |
| 20260905123024 | 68 | 79 | 1.0 | 3.0 | 0.00 | 1.69 | 1.27 | 96 | 1013.5 |
| 20260905122524 | 68 | 163 | 1.0 | 4.0 | 0.00 | 1.69 | 1.27 | 97 | 1013.4 |
| 20260905122024 | 68 | 62 | 1.0 | 3.0 | 0.00 | 1.69 | 1.27 | 97 | 1013.4 |
| 20260905121524 | 67 | 46 | 0.0 | 1.0 | 0.00 | 1.69 | 1.27 | 97 | 1013.4 |
| 20260905121024 | 67 | 96 | 0.0 | 3.0 | 0.00 | 1.69 | 1.27 | 97 | 1013.2 |
| 20260905120524 | 67 | 61 | 0.0 | 1.0 | 0.00 | 1.69 | 1.27 | 97 | 1013.1 |